Montgomery, NY

6:55 AM EDT on June 28, 2017 (GMT -0400)
Orange County

Weather History for KMGJ - April, 2013

Change the Weather History Date:

Wednesday, April 24, 2013

  Actual Average (KSWF) Record (KSWF)
Temperature  
Mean Temperature 52 °F -  
Max Temperature 75 °F 60 °F 84 °F (2001)
Min Temperature 30 °F 38 °F 26 °F (2002)
Degree Days  
Heating Degree Days 14    
Growing Degree Days 2 (Base 50)    
Moisture  
Dew Point 37 °F    
Average Humidity 77    
Maximum Humidity 96    
Minimum Humidity 38    
Precipitation  
Precipitation 0.00 in - - ()
Sea Level Pressure  
Sea Level Pressure 29.99 in    
Wind  
Wind Speed 2 mph (SSW)    
Max Wind Speed 15 mph    
Max Gust Speed 20 mph    
Visibility 6 miles    
Events      
Averages and records for this station are not official NWS values.
T = Trace of Precipitation, MM = Missing Value Source: NWS Daily Summary

Daily Weather History Graph

Daily Weather History Graph

Search for Another Location

Airport or City:

Trip Planner

Search our weather history database for the weather conditions in past years. The results will help you decide how hot, cold, wet, or windy it might be!

Date:

Astronomy

Apr. 24, 2013 Rise Set
Actual Time 6:03 AM EDT 7:47 PM EDT
Civil Twilight 5:33 AM EDT 8:17 PM EDT
Nautical Twilight 4:58 AM EDT 8:53 PM EDT
Astronomical Twilight 4:19 AM EDT 9:31 PM EDT
Moon 6:47 PM EDT (4/24) 5:06 AM EDT (4/24)
Length of Visible Light 14h 43m
Length of Day
13h 44m
Waxing Gibbous, 98% of the Moon is Illuminated
Apr 24
Waxing Gibbous
Apr 25
Full
May 2
Last Quarter
May 9
New
May 18
First Quarter

Hourly Weather History & Observations

Time (EDT) Temp. Windchill Dew Point Humidity Pressure Visibility Wind Dir Wind Speed Gust Speed Precip Events Conditions
12:54 AM 36.0 °F - 33.1 °F 89% 30.11 in 6.0 mi Calm Calm - N/A   Clear
1:12 AM 35.6 °F - 33.8 °F 93% 30.09 in 1.0 mi Calm Calm - N/A   Clear
1:21 AM 33.8 °F - 32.0 °F 93% 30.09 in 2.0 mi Calm Calm - N/A   Clear
1:28 AM 35.6 °F - 32.0 °F 87% 30.09 in 10.0 mi Calm Calm - N/A   Clear
1:39 AM 35.6 °F - 33.8 °F 93% 30.09 in 1.8 mi Calm Calm - N/A   Clear
1:45 AM 33.8 °F - 30.2 °F 87% 30.09 in 3.0 mi Calm Calm - N/A   Clear
1:54 AM 34.0 °F - 30.9 °F 89% 30.09 in 10.0 mi Calm Calm - N/A   Clear
2:07 AM 33.8 °F - 30.2 °F 87% 30.07 in 2.0 mi Calm Calm - N/A   Partly Cloudy
2:16 AM 33.8 °F - 30.2 °F 87% 30.08 in 9.0 mi Calm Calm - N/A   Partly Cloudy
2:54 AM 33.1 °F - 30.9 °F 92% 30.07 in 7.0 mi Calm Calm - 0.00 in   Clear
3:31 AM 32.0 °F - 30.2 °F 93% 30.06 in 1.2 mi Calm Calm - N/A   Partly Cloudy
3:33 AM 32.0 °F - 30.2 °F 93% 30.06 in 0.8 mi Calm Calm - N/A   Mist
3:54 AM 32.0 °F - 30.0 °F 92% 30.07 in 0.8 mi Calm Calm - N/A   Mist
3:56 AM 32.0 °F - 30.2 °F 93% 30.06 in 1.2 mi Calm Calm - N/A   Scattered Clouds
3:59 AM 33.8 °F - 30.2 °F 87% 30.06 in 3.0 mi Calm Calm - N/A   Partly Cloudy
4:16 AM 32.0 °F - 30.2 °F 93% 30.06 in 1.8 mi Calm Calm - N/A   Partly Cloudy
4:52 AM 30.2 °F - 28.4 °F 93% 30.05 in 1.8 mi Calm Calm - N/A   Scattered Clouds
4:54 AM 30.9 °F - 28.9 °F 92% 30.06 in 1.2 mi Calm Calm - N/A   Scattered Clouds
5:03 AM 30.2 °F - 28.4 °F 93% 30.05 in 3.0 mi Calm Calm - N/A   Partly Cloudy
5:54 AM 32.0 °F - 30.0 °F 92% 30.06 in 9.0 mi Calm Calm - 0.00 in   Clear
6:38 AM 32.0 °F 28.7 °F 30.2 °F 93% 30.06 in 2.5 mi SSW 3.5 mph - N/A   Clear
6:47 AM 33.8 °F - 30.2 °F 87% 30.05 in 6.0 mi Calm Calm - N/A   Clear
6:54 AM 33.1 °F - 32.0 °F 96% 30.06 in 6.0 mi Calm Calm - N/A   Clear
7:54 AM 39.0 °F 36.8 °F 36.0 °F 89% 30.05 in 9.0 mi SSW 3.5 mph - N/A   Clear
8:54 AM 46.9 °F - 39.9 °F 77% 30.04 in 10.0 mi South 4.6 mph - N/A   Clear
9:54 AM 53.1 °F - 41.0 °F 64% 30.01 in 10.0 mi SSW 8.1 mph - N/A   Clear
10:54 AM 57.0 °F - 43.0 °F 59% 29.99 in 10.0 mi SW 8.1 mph - N/A   Clear
11:54 AM 63.0 °F - 44.1 °F 50% 29.95 in 10.0 mi SW 11.5 mph 17.3 mph N/A   Clear
12:54 PM 66.0 °F - 45.0 °F 47% 29.91 in 10.0 mi WSW 11.5 mph - N/A   Clear
1:54 PM 70.0 °F - 46.9 °F 44% 29.87 in 10.0 mi WSW 11.5 mph - N/A   Mostly Cloudy
2:54 PM 73.0 °F - 48.0 °F 41% 29.84 in 10.0 mi SW 10.4 mph - N/A   Clear
3:54 PM 73.9 °F - 46.9 °F 38% 29.80 in 10.0 mi South 11.5 mph 17.3 mph N/A   Clear
4:54 PM 73.0 °F - 48.0 °F 41% 29.79 in 10.0 mi South 15.0 mph - N/A   Clear
5:54 PM 71.1 °F - 48.0 °F 44% 29.77 in 10.0 mi South 10.4 mph - N/A   Clear
6:54 PM 69.1 °F - 48.9 °F 49% 29.77 in 10.0 mi SSE 10.4 mph 19.6 mph N/A   Clear
7:54 PM 64.0 °F - 48.9 °F 58% 29.80 in 10.0 mi South 8.1 mph - N/A   Clear
8:54 PM 62.1 °F - 48.9 °F 62% 29.80 in 10.0 mi South 5.8 mph - N/A   Clear
9:54 PM 61.0 °F - 50.0 °F 67% 29.81 in 10.0 mi South 6.9 mph - N/A   Scattered Clouds
10:54 PM 59.0 °F - 50.0 °F 72% 29.80 in 10.0 mi South 8.1 mph - N/A   Partly Cloudy
11:54 PM 61.0 °F - 51.1 °F 70% 29.79 in 10.0 mi SSW 10.4 mph - N/A   Partly Cloudy